Wind_Speed
22 22 23 22 21 21 22 23 22 21 22 23 23 22 22 23 23 24 24 24 24 25 25 25 26 27 27 26 26 25 25 26 27 27 28 29 29 31 33 34 35 36 37
21 21 20 21 21 20 20 22 22 22 23 23 24 24 23 23 23 24 24 24 24 24 24 24 24 25 24 24 25 25 25 26 27 28 29 30 31 33 34 35 36 36 37
22 22 21 21 20 20 21 21 21 22 23 23 24 24 24 24 24 23 23 24 24 24 24 23 23 23 23 24 25 25 26 27 28 29 30 32 33 34 35 36 36 37 37
21 21 21 21 21 20 21 22 21 22 23 23 23 23 23 23 23 23 23 23 23 23 23 22 23 23 24 25 26 26 27 28 29 30 31 32 34 34 35 35 35 35 35
20 20 21 21 21 21 22 22 21 22 22 23 22 22 22 22 22 22 22 22 23 23 23 23 23 24 25 26 27 28 28 29 30 31 32 32 33 33 33 34 34 33 33
19 19 20 21 21 21 22 21 20 21 21 22 23 23 22 22 22 21 21 21 22 23 23 23 24 25 26 27 28 28 29 29 30 31 31 32 32 32 31 31 31 30 29
18 19 19 20 20 21 21 21 21 21 20 21 21 21 22 21 21 21 21 21 21 22 23 24 25 26 26 27 28 28 29 29 30 30 30 30 30 30 29 28 28 26 25
17 18 19 19 20 19 20 21 20 19 19 19 19 20 20 20 20 21 21 21 22 22 22 23 24 25 26 27 28 28 28 28 28 28 28 28 27 26 25 25 24 23 22
16 17 18 18 18 19 18 18 19 18 18 17 17 19 19 20 20 20 21 21 21 22 22 23 24 25 26 27 27 27 27 26 26 26 26 25 24 24 23 22 21 21 20
14 15 16 16 17 17 16 16 17 16 16 17 18 18 18 19 20 20 20 19 20 21 22 23 24 25 25 26 25 25 24 24 23 23 23 23 22 22 21 20 20 19 19
12 12 12 13 14 15 15 14 14 15 15 16 16 16 16 17 18 18 19 19 20 20 21 22 23 24 24 23 22 21 21 21 21 21 21 21 20 20 19 19 18 17 17
11 11 11 11 12 13 12 12 12 13 14 14 14 14 14 14 15 16 17 18 19 19 19 19 20 20 20 19 19 19 19 20 19 19 19 18 18 18 17 16 16 16 15
9 10 10 10 10 10 10 11 11 11 11 11 12 13 13 13 14 15 15 16 17 17 17 17 17 17 17 17 18 18 18 18 17 17 17 17 17 16 15 14 14 14 13
7 8 9 9 9 10 10 10 10 9 9 9 9 10 10 11 11 11 12 13 13 14 14 14 14 15 15 15 15 15 15 15 15 15 15 15 14 14 13 12 12 12 10
6 7 7 8 8 8 7 7 7 7 7 7 7 8 8 9 9 10 10 11 11 11 12 12 12 12 12 12 13 13 13 13 13 13 13 13 12 12 11 10 10 9 8
5 5 6 6 6 6 5 5 4 4 4 4 5 5 6 7 7 8 8 9 9 9 9 9 10 10 10 11 11 12 12 11 11 12 11 11 10 9 8 8 7 7 6
5 6 6 6 6 6 5 4 3 2 1 1 1 2 3 3 4 5 6 6 7 7 8 8 8 8 9 9 9 10 10 10 9 9 9 8 8 7 6 5 5 5 5
6 6 6 6 6 5 4 4 3 2 2 2 2 2 3 3 4 4 5 5 5 5 6 6 6 7 7 7 7 7 7 7 7 7 7 6 6 5 5 4 5 4 4
8 8 7 7 6 6 5 5 4 4 4 4 4 4 5 5 5 5 5 5 5 5 6 6 6 6 6 6 6 6 6 6 6 6 6 5 5 5 5 5 5 4 4
9 9 9 8 8 7 7 7 6 6 6 6 6 6 7 7 7 7 7 7 7 7 7 7 7 7 7 7 7 7 7 6 6 6 6 6 6 6 6 5 5 5 5
10 10 10 10 10 9 9 8 8 8 8 8 8 9 9 9 10 10 10 10 10 10 10 10 9 9 9 9 9 9 8 8 8 8 8 7 7 7 7 6 6 6 6
12 12 12 11 11 11 10 10 10 10 10 10 10 10 11 11 12 12 12 12 12 12 12 12 12 11 11 11 11 10 10 10 9 9 9 9 8 8 7 7 7 7 8
14 14 13 13 13 12 12 12 12 12 12 12 12 12 12 12 13 13 13 13 13 13 13 13 13 13 12 12 12 11 11 11 10 10 9 9 9 9 8 8 8 8 8
16 16 15 15 15 15 15 14 14 13 13 13 12 12 13 13 13 13 13 13 13 13 13 13 13 12 12 12 12 12 11 10 10 10 9 9 9 9 9 9 9 9 10
17 17 17 17 17 16 16 16 15 14 14 13 13 13 12 12 12 12 12 12 12 13 13 13 12 12 12 12 12 12 11 11 11 10 10 10 9 9 10 10 10 11 12
18 18 18 17 17 16 16 15 15 14 14 13 13 13 12 12 12 12 12 12 12 12 12 12 12 12 12 12 12 12 12 11 11 11 11 11 11 11 11 12 12 13 14
Wind_Direction
260 257 255 251 247 242 239 238 237 239 238 238 237 237 238 240 240 241 242 243 243 246 250 252 254 256 255 258 262 264 267 271 275 277 279 282 284 286 288 289 291 292 294
258 255 252 248 243 240 238 238 239 239 238 238 237 236 237 239 240 241 242 243 244 246 249 252 255 256 256 259 264 268 271 274 276 279 282 283 286 288 289 290 292 293 295
257 252 244 241 239 240 239 237 238 239 238 238 235 235 235 236 240 241 241 244 247 249 251 255 257 256 259 263 268 271 273 276 279 281 282 284 286 289 290 291 293 295 296
253 246 241 238 237 237 237 237 237 237 235 233 231 234 236 237 239 240 243 247 250 252 253 255 256 258 263 267 270 273 275 278 280 282 284 286 288 290 291 292 294 295 297
246 241 239 237 235 235 233 233 236 234 231 232 232 233 237 239 239 240 244 248 251 253 254 257 260 264 266 269 272 274 277 279 281 283 285 288 289 290 291 293 295 297 298
242 240 236 235 234 232 231 232 233 230 231 231 232 234 237 240 243 243 246 250 253 255 257 259 263 268 269 271 274 276 278 280 282 285 287 288 289 291 292 295 296 298 299
235 235 235 233 233 232 233 234 234 234 233 230 232 235 236 240 243 245 250 253 255 257 259 262 264 268 270 273 275 278 280 282 284 286 287 289 291 292 294 296 298 298 299
231 230 229 230 231 232 232 231 232 235 235 233 233 234 237 242 245 248 252 256 259 262 262 264 268 270 272 274 277 279 281 283 285 286 288 291 292 293 294 296 297 298 298
231 231 231 232 231 233 231 232 234 237 236 233 237 239 243 248 251 252 255 258 262 263 266 269 270 273 274 276 278 279 281 283 285 288 290 291 292 293 294 296 297 297 299
233 234 233 232 229 228 230 231 232 235 239 241 244 245 249 251 252 254 256 259 263 265 269 272 273 275 278 281 282 282 283 286 288 291 292 292 292 293 294 295 296 297 298
227 228 225 224 225 224 225 228 233 238 244 248 245 247 251 253 256 259 261 262 266 269 272 274 276 278 280 282 283 285 287 290 292 294 294 293 293 294 295 295 296 297 298
225 223 222 224 228 224 222 223 230 239 243 245 245 248 254 259 261 262 262 264 268 272 275 278 281 282 283 283 286 289 291 294 294 294 295 295 295 295 295 295 296 297 299
218 215 215 218 217 218 221 225 231 235 239 245 251 255 258 263 265 266 268 270 273 275 277 280 282 285 286 288 290 291 294 295 294 294 296 297 298 297 296 297 298 299 300
211 207 207 209 210 213 220 225 227 231 239 247 252 255 259 265 267 271 275 279 281 282 284 286 288 289 289 290 291 293 296 296 296 297 299 300 299 298 299 300 302 305 304
195 194 193 198 203 206 210 217 225 233 236 245 252 257 264 270 275 281 284 285 286 287 289 292 293 294 295 296 297 299 299 299 299 300 301 302 301 301 302 303 306 308 311
163 168 172 175 177 182 190 197 208 220 234 248 258 265 272 279 283 285 287 288 289 291 294 298 301 302 302 303 304 305 305 305 305 306 307 307 308 308 308 310 314 317 320
147 151 152 153 158 161 163 163 165 173 189 254 281 288 297 300 298 299 301 302 303 305 307 308 308 309 310 311 312 313 314 314 314 314 315 317 319 320 320 323 328 329 329
135 135 135 139 143 143 141 136 131 125 114 83 64 46 27 9 354 344 339 335 333 332 331 330 329 328 327 326 327 328 329 330 330 330 333 336 339 342 343 344 346 348 351
120 121 121 123 125 125 122 117 111 105 98 88 73 59 47 37 31 28 25 22 19 17 14 9 4 360 357 355 353 351 350 350 352 354 357 2 7 9 9 10 11 12 9
113 114 114 115 116 115 112 108 104 98 91 85 75 67 60 55 52 51 49 46 42 38 34 29 26 25 23 21 19 17 18 20 23 25 28 30 30 29 28 27 27 23 15
110 111 112 112 111 109 106 104 99 94 91 86 80 75 70 66 64 63 61 56 51 48 47 46 45 44 43 42 41 41 41 42 43 43 43 42 41 37 34 31 27 19 11
106 107 107 106 105 105 102 100 98 96 92 88 85 81 77 73 71 68 63 59 57 56 54 53 53 52 50 49 48 49 50 50 50 49 47 44 41 37 33 28 22 15 10
103 104 105 103 102 101 101 100 99 97 93 90 86 82 78 74 71 68 64 62 60 58 56 55 54 52 51 50 50 50 49 48 47 44 41 39 35 32 28 22 16 9 3
100 101 101 101 100 100 99 99 98 96 92 89 85 82 79 75 71 67 64 62 59 57 56 53 51 50 48 47 45 43 42 40 37 34 31 28 23 17 13 8 3 358 353
99 100 99 99 98 98 98 97 95 93 90 87 84 81 78 74 70 66 63 59 56 54 52 49 47 45 43 40 38 35 33 30 27 24 20 15 11 6 1 356 351 346 343
99 99 98 97 96 96 95 94 92 90 87 85 82 78 76 73 69 65 60 56 52 49 46 44 43 41 38 36 33 30 26 22 19 15 11 6 1 357 352 348 343 339 336
Height
5742 5742 5744 5745 5747 5748 5750 5753 5755 5757 5760 5762 5764 5767 5769 5771 5774 5777 5779 5781 5783 5785 5786 5788 5789 5790 5790 5791 5791 5791 5791 5790 5789 5788 5787 5785 5783 5781 5779 5776 5774 5771 5767
5735 5736 5738 5739 5741 5743 5745 5748 5750 5752 5755 5757 5759 5761 5764 5766 5768 5771 5773 5775 5777 5779 5780 5781 5782 5783 5784 5784 5784 5784 5784 5783 5782 5781 5779 5777 5775 5773 5770 5768 5765 5762 5758
5729 5730 5732 5734 5736 5738 5740 5742 5745 5747 5749 5752 5754 5756 5758 5760 5763 5765 5768 5769 5771 5773 5774 5776 5776 5777 5778 5778 5778 5778 5777 5776 5775 5773 5772 5769 5767 5765 5762 5759 5756 5753 5749
5723 5725 5727 5729 5731 5733 5735 5737 5739 5742 5744 5746 5749 5751 5753 5755 5757 5760 5762 5764 5765 5767 5769 5770 5770 5771 5771 5771 5771 5770 5770 5768 5767 5765 5763 5761 5759 5756 5753 5750 5747 5744 5741
5717 5719 5721 5723 5726 5728 5730 5732 5734 5737 5739 5741 5744 5746 5748 5751 5752 5754 5756 5758 5760 5762 5763 5763 5764 5764 5764 5764 5764 5763 5762 5761 5759 5757 5755 5753 5750 5748 5745 5742 5739 5736 5732
5713 5714 5716 5718 5721 5723 5725 5727 5729 5732 5734 5736 5739 5741 5743 5745 5747 5749 5751 5753 5754 5755 5756 5757 5758 5758 5758 5757 5756 5755 5754 5753 5751 5749 5747 5745 5742 5740 5737 5734 5731 5728 5725
5708 5710 5712 5714 5716 5718 5720 5723 5725 5727 5729 5731 5734 5736 5738 5740 5742 5744 5746 5747 5748 5749 5750 5751 5751 5751 5751 5750 5749 5748 5747 5745 5744 5742 5740 5737 5735 5732 5730 5727 5724 5721 5719
5704 5706 5708 5710 5712 5714 5716 5718 5721 5723 5725 5726 5729 5731 5733 5735 5737 5739 5740 5742 5743 5744 5744 5744 5744 5744 5743 5743 5742 5741 5739 5738 5736 5734 5732 5730 5727 5725 5723 5721 5718 5715 5713
5700 5702 5704 5706 5708 5710 5712 5714 5717 5719 5721 5723 5725 5727 5729 5731 5732 5734 5735 5736 5737 5737 5738 5738 5738 5738 5737 5736 5735 5733 5732 5730 5729 5727 5725 5723 5720 5718 5716 5715 5712 5710 5708
5697 5699 5700 5702 5704 5706 5709 5711 5713 5716 5718 5720 5722 5724 5725 5726 5728 5729 5730 5731 5731 5732 5732 5732 5732 5731 5730 5729 5728 5726 5725 5724 5722 5720 5718 5716 5714 5713 5711 5709 5707 5705 5703
5694 5696 5698 5700 5701 5704 5706 5708 5711 5713 5715 5717 5718 5720 5721 5722 5723 5724 5725 5726 5726 5726 5726 5726 5725 5724 5723 5722 5721 5720 5719 5718 5716 5714 5712 5711 5709 5707 5705 5704 5702 5700 5698
5692 5694 5695 5697 5699 5701 5704 5706 5708 5710 5712 5714 5715 5716 5717 5718 5719 5720 5720 5721 5721 5721 5720 5720 5719 5718 5718 5717 5716 5715 5714 5712 5711 5709 5708 5706 5704 5703 5701 5699 5698 5696 5694
5690 5692 5694 5696 5698 5700 5702 5704 5706 5708 5710 5711 5712 5713 5714 5715 5716 5716 5716 5716 5716 5716 5715 5715 5714 5714 5713 5712 5711 5710 5709 5708 5706 5705 5703 5702 5700 5698 5697 5695 5694 5692 5690
5689 5691 5693 5695 5697 5699 5701 5703 5704 5706 5707 5709 5710 5711 5711 5712 5712 5712 5712 5712 5712 5712 5711 5711 5710 5710 5709 5708 5707 5706 5705 5704 5702 5701 5699 5698 5696 5695 5693 5692 5690 5689 5687
5689 5691 5692 5694 5696 5698 5700 5702 5703 5705 5706 5707 5708 5709 5709 5709 5709 5709 5709 5709 5709 5708 5708 5708 5707 5706 5705 5704 5703 5702 5701 5700 5699 5697 5696 5694 5693 5691 5690 5689 5688 5686 5685
5689 5691 5692 5694 5696 5698 5700 5701 5702 5704 5705 5705 5706 5707 5707 5707 5707 5707 5707 5706 5706 5706 5706 5705 5704 5703 5703 5702 5700 5699 5698 5697 5695 5694 5693 5691 5690 5689 5687 5686 5685 5684 5683
5691 5692 5693 5695 5697 5698 5700 5701 5702 5704 5704 5705 5705 5705 5706 5705 5705 5705 5705 5705 5704 5704 5704 5703 5702 5701 5700 5699 5698 5697 5695 5694 5693 5691 5690 5689 5688 5686 5685 5684 5683 5682 5681
5692 5693 5695 5696 5698 5699 5700 5702 5703 5704 5705 5705 5705 5705 5705 5705 5704 5704 5704 5704 5703 5702 5702 5701 5700 5699 5698 5697 5696 5695 5693 5692 5691 5690 5688 5687 5686 5685 5684 5683 5682 5681 5681
5694 5695 5696 5698 5699 5700 5701 5702 5703 5704 5705 5706 5706 5706 5706 5705 5705 5704 5704 5703 5703 5702 5701 5701 5700 5699 5697 5696 5695 5694 5693 5691 5690 5689 5688 5687 5686 5685 5684 5683 5682 5681 5681
5696 5697 5698 5699 5701 5702 5703 5704 5705 5706 5706 5707 5707 5707 5707 5707 5706 5706 5705 5704 5704 5703 5702 5701 5700 5698 5697 5696 5695 5693 5692 5691 5690 5689 5688 5687 5686 5685 5684 5683 5682 5682 5681
5698 5699 5701 5702 5703 5704 5705 5706 5707 5707 5708 5709 5709 5709 5709 5709 5708 5708 5707 5706 5705 5704 5703 5702 5700 5699 5698 5697 5696 5694 5693 5692 5691 5690 5689 5688 5687 5686 5685 5684 5683 5682 5681
5701 5702 5703 5704 5705 5706 5707 5708 5709 5710 5711 5711 5711 5712 5711 5711 5710 5710 5709 5708 5707 5706 5705 5704 5702 5701 5700 5699 5697 5696 5695 5694 5693 5692 5690 5689 5688 5687 5686 5685 5684 5683 5682
5705 5706 5707 5708 5708 5709 5710 5711 5712 5713 5713 5714 5714 5714 5714 5714 5713 5712 5712 5711 5710 5709 5708 5706 5705 5704 5702 5701 5700 5698 5697 5696 5695 5693 5692 5691 5690 5689 5687 5686 5685 5683 5682
5709 5710 5710 5711 5712 5713 5714 5714 5715 5716 5717 5717 5717 5717 5717 5717 5716 5716 5715 5714 5713 5712 5710 5709 5708 5706 5705 5703 5702 5701 5699 5698 5696 5695 5694 5692 5691 5690 5688 5687 5685 5684 5682
5714 5714 5715 5716 5716 5717 5718 5718 5719 5719 5720 5720 5720 5720 5720 5720 5719 5719 5718 5717 5716 5714 5713 5712 5710 5709 5707 5706 5704 5703 5701 5700 5698 5696 5695 5693 5692 5690 5689 5687 5685 5683 5681
5719 5719 5720 5720 5721 5722 5722 5723 5723 5723 5723 5724 5723 5723 5723 5723 5722 5721 5720 5719 5718 5717 5716 5714 5713 5711 5709 5708 5706 5704 5703 5701 5699 5697 5696 5694 5692 5690 5688 5686 5684 5682 5680